Weather History for Toledo, OH

Change the Weather History Date:

Sunday, March 23, 2014

  Actual Average Record
Temperature  
Mean Temperature 26 °F 40 °F  
Max Temperature 31 °F 50 °F 73 °F (1988)
Min Temperature 20 °F 31 °F 5 °F (1888)
Degree Days  
Heating Degree Days 39 25  
Month to date heating degree days 870 666  
Since 1 July heating degree days 6196 5242  
Cooling Degree Days 0 0  
Month to date cooling degree days 0 0  
Year to date cooling degree days 0 0  
Moisture  
Dew Point 10 °F    
Average Humidity 55    
Maximum Humidity 68    
Minimum Humidity 42    
Precipitation  
Precipitation 0.00 in 0.08 in 0.75 in (1993)
Month to date precipitation 1.23 1.77  
Year to date precipitation 8.41 5.89  
Snow  
Snow 0.00 in 0.10 in - ()
Month to date snowfall 11.3 4.7  
Since 1 July snowfall 84.8 35.2  
Snow Depth 0.00 in    
Sea Level Pressure  
Sea Level Pressure 30.33 in    
Wind  
Wind Speed 10 mph (NNW)    
Max Wind Speed 18 mph    
Max Gust Speed 26 mph    
Visibility 10 miles    
Events      
T = Trace of Precipitation, MM = Missing Value Source: NWS Daily Summary

Daily Weather History Graph

Daily Weather History Graph

Search for Another Location

Airport:

Trip Planner

Search our weather history database for the weather conditions in past years. The results will help you decide how hot, cold, wet, or windy it might be!

Date:

Astronomy

Mar. 23, 2014 Rise Set
Actual Time 7:33 AM EDT 7:50 PM EDT
Civil Twilight 7:05 AM EDT 8:18 PM EDT
Nautical Twilight 6:33 AM EDT 8:51 PM EDT
Astronomical Twilight 5:59 AM EDT 9:24 PM EDT
Moon 2:10 AM EDT (3/23) 12:09 PM EDT (3/23)
Length of Visible Light 13h 12m
Length of Day
12h 17m
Waning Gibbous, 55% of the Moon is Illuminated
Mar 23
Waning Gibbous
Mar 23
Last Quarter
Mar 30
New
Apr 7
First Quarter
Apr 15
Full

Hourly Weather History & Observations

Time (EDT) Temp. Windchill Dew Point Humidity Pressure Visibility Wind Dir Wind Speed Gust Speed Precip Events Conditions
12:14 AM 33.8 °F 25.3 °F 23.0 °F 65% 30.20 in 10.0 mi WNW 11.5 mph - N/A   Mostly Cloudy
12:52 AM 32.0 °F 23.0 °F 21.9 °F 66% 30.23 in 10.0 mi North 11.5 mph 19.6 mph N/A   Overcast
1:12 AM 30.2 °F 21.9 °F 19.4 °F 64% 30.22 in 10.0 mi North 9.2 mph - N/A   Overcast
1:52 AM 28.9 °F 18.6 °F 16.0 °F 58% 30.25 in 10.0 mi NNW 12.7 mph 23.0 mph N/A   Mostly Cloudy
2:52 AM 27.0 °F 16.1 °F 14.0 °F 58% 30.27 in 10.0 mi North 12.7 mph - N/A   Clear
3:52 AM 25.0 °F 15.5 °F 15.1 °F 66% 30.28 in 10.0 mi North 9.2 mph - N/A   Clear
4:52 AM 23.0 °F 11.7 °F 10.9 °F 60% 30.30 in 10.0 mi North 11.5 mph - N/A   Clear
5:52 AM 21.9 °F 10.4 °F 10.0 °F 60% 30.31 in 10.0 mi North 11.5 mph - N/A   Clear
6:52 AM 19.9 °F 7.3 °F 7.0 °F 57% 30.34 in 10.0 mi North 12.7 mph - N/A   Partly Cloudy
7:52 AM 19.9 °F 8.6 °F 5.0 °F 52% 30.37 in 10.0 mi North 10.4 mph - N/A   Partly Cloudy
8:52 AM 19.9 °F 7.9 °F 6.1 °F 55% 30.37 in 10.0 mi North 11.5 mph - N/A   Mostly Cloudy
9:52 AM 19.9 °F 7.9 °F 7.0 °F 57% 30.38 in 10.0 mi NW 11.5 mph - N/A   Clear
10:52 AM 23.0 °F 11.7 °F 8.1 °F 53% 30.38 in 10.0 mi North 11.5 mph - N/A   Clear
11:52 AM 23.0 °F 11.7 °F 6.1 °F 48% 30.38 in 10.0 mi NW 11.5 mph - N/A   Partly Cloudy
12:52 PM 25.0 °F 14.2 °F 7.0 °F 46% 30.38 in 10.0 mi NW 11.5 mph 21.9 mph N/A   Clear
1:52 PM 27.0 °F 17.3 °F 7.0 °F 43% 30.36 in 10.0 mi NW 10.4 mph 18.4 mph N/A   Mostly Cloudy
2:52 PM 28.9 °F 17.7 °F 8.1 °F 41% 30.34 in 10.0 mi NW 15.0 mph 18.4 mph N/A   Scattered Clouds
3:52 PM 27.0 °F 16.1 °F 8.1 °F 45% 30.33 in 10.0 mi North 12.7 mph 18.4 mph N/A   Overcast
4:52 PM 26.1 °F 15.0 °F 7.0 °F 44% 30.33 in 10.0 mi NW 12.7 mph - N/A   Mostly Cloudy
5:52 PM 27.0 °F 17.3 °F 8.1 °F 45% 30.33 in 10.0 mi NW 10.4 mph - N/A   Scattered Clouds
6:52 PM 27.0 °F 19.5 °F 8.1 °F 45% 30.33 in 10.0 mi NW 6.9 mph - N/A   Mostly Cloudy
7:52 PM 26.1 °F 18.4 °F 8.1 °F 47% 30.35 in 10.0 mi NNW 6.9 mph - N/A   Mostly Cloudy
8:52 PM 25.0 °F 18.1 °F 9.0 °F 51% 30.36 in 10.0 mi NW 5.8 mph - N/A   Overcast
9:52 PM 25.0 °F - 10.0 °F 53% 30.36 in 10.0 mi Calm Calm - N/A   Overcast
10:52 PM 24.1 °F 19.7 °F 10.0 °F 55% 30.37 in 10.0 mi NNE 3.5 mph - N/A   Overcast
11:52 PM 21.9 °F 17.2 °F 10.0 °F 60% 30.37 in 10.0 mi North 3.5 mph - N/A   Scattered Clouds